SORAYA

Satellite information

Favourite Embed

Satellite Type and Status

PAYLOADIN ORBIT

Key statistics

Satellite SORAYA at a glance.

Uptime

534

Days in orbit

Revolutions

≈ 14.4

Per day

Orbit

LEO

Low Earth Orbit

Inclination

64.5

Latest

Satellite identification and parameters

Extended collection of information and parameters for SORAYA.

Object identification

Identified? True

Debris? False

Object name: SORAYA

International designator: 2024-015A

Object number (NORAD): 58817

Object ID (CCSDS): 58817

Country: IRAN (IRAN)

Current information (Y/N): Y

RCS size: MEDIUM

Orbital parameters

Period: 99.825 minutes

Inclination: 64.5148 deg

SMA: 7128.307 km

Apoapsis: 773.495 km

Periapsis: 726.849 km

RAAN: 3.7802 deg

Eccentricy: 0.0032719

Argument of periapsis: 237.5641 deg

Mean anomaly: 122.2279 deg

Mean motion: 14.42524451 rev/day

Mean motion (dot): 0.00000039 rev/day2

B* drag term: 0.000043753 1/REarth

Two-line elements (TLE)

Creation date: July 6, 2025, 10:46 p.m.

Reference frame: TEME

Reference center: EARTH

Epoch: July 6, 2025, 9:28 p.m. UTC

TLE line 0: 0 SORAYA

TLE line 1: 1 58817U 24015A 25187.89484755 .00000039 00000-0 43753-4 0 9992

TLE line 2: 2 58817 64.5148 3.7802 0032719 237.5641 122.2279 14.42524451 76964

Live tracking on map

Real-time ground track for satellite SORAYA.

In-orbit conjunctions

There are no conjunctions computed for SORAYA, at the moment. Check back to stay up to date, as we update our databases every day.

Go to all conjunctions

Associated space launch

Satellite of unknown purposes for the Iranian Space Organization, orbiting in an 750 km high LEO.

SORAYA was lifted into orbit during the mission ‘Qaem 100 | Soraya’, on board a Qaem 100 space rocket.

The launch took place on Jan. 20, 2024, 6:28 a.m. from Launch Platform.

For more information about the launch, click the button.

Launch to space Qaem 100 | Soraya
Qaem 100 | Soraya

Agency: N/A

Status: Launch Successful

Launch date: Jan. 20, 2024, 6:28 a.m. UTC

Rocket: Qaem 100

Launch pad: Launch Platform

Location: Shahrud Missile Test Site, Islamic Republic of Iran

...

Latest news about this satellite

News about space launch
Rocket Report: Iran reaches orbit; Chinese firm achieves impressive landing test

"Our investors’ continued support is a recognition of our 18 months of hard work."


Newsletter sign-up

Weekly statistics, charts and insights to help you stay on top of the space industry.